Location: LDNL
(36.4545°S, 141.6685°E)
Time: 04:58:17
(UTC+11:00)

Vanguard 2 - Pass Details

Date: 12 August 2022
Orbit: 552 x 2934 km, 32.9° (Epoch: 06 October)

Event Time Altitude Azimuth Distance (km) Brightness Sun altitude
Rises 23:39:28 0° 262° (W) 4,855 11.9 -64.7°
Enters shadow 23:40:39 - 264° (W) 4,474 11.6 -64.9°
Reaches altitude 10° 23:44:04 10° 275° (W) 3,390 - -65.2°
Maximum altitude 23:49:46 21° 320° (NW) 2,093 - -65.8°
Drops below altitude 10° 23:53:57 10° 9° (N) 2,383 - -66.2°
Sets 23:56:33 0° 26° (NNE) 3,082 - -66.5°
